Lexington, KY

10:43 PM EDT on July 28, 2016 (GMT -0400)
Blue Grass

Weather History for KLEX - March, 2011

Change the Weather History Date:

Thursday, March 17, 2011

  Actual Average Record
Temperature  
Mean Temperature 57 °F 46 °F  
Max Temperature 73 °F 56 °F 76 °F (1989)
Min Temperature 40 °F 36 °F 4 °F (1900)
Degree Days  
Heating Degree Days 8 19  
Month to date heating degree days 329 369  
Since 1 July heating degree days 4121 3940  
Cooling Degree Days 0 0  
Month to date cooling degree days 0 0  
Year to date cooling degree days 0 0  
Growing Degree Days 6 (Base 50)    
Moisture  
Dew Point 40 °F    
Average Humidity 59    
Maximum Humidity 79    
Minimum Humidity 38    
Precipitation  
Precipitation 0.00 in 0.13 in 1.16 in (1932)
Month to date precipitation 4.17 2.18  
Year to date precipitation 12.43 8.58  
Snow  
Snow 0.00 in 0.00 in 7.00 in (1892)
Month to date snowfall 0.2 0.9  
Since 1 July snowfall 27.6 12.2  
Snow Depth 0.00 in    
Sea Level Pressure  
Sea Level Pressure 30.16 in    
Wind  
Wind Speed 12 mph (South)    
Max Wind Speed 22 mph    
Max Gust Speed 29 mph    
Visibility 10 miles    
Events      
T = Trace of Precipitation, MM = Missing Value Source: NWS Daily Summary

Daily Weather History Graph

Daily Weather History Graph

Search for Another Location

Airport or City:

Trip Planner

Search our weather history database for the weather conditions in past years. The results will help you decide how hot, cold, wet, or windy it might be!

Date:

Astronomy

Mar. 17, 2011 Rise Set
Actual Time 7:46 AM EDT 7:47 PM EDT
Civil Twilight 7:20 AM EDT 8:13 PM EDT
Nautical Twilight 6:50 AM EDT 8:44 PM EDT
Astronomical Twilight 6:19 AM EDT 9:15 PM EDT
Moon 5:41 PM EDT (3/17) 6:07 AM EDT (3/17)
Length of Visible Light 12h 52m
Length of Day
12h 00m
Waxing Gibbous, 93% of the Moon is Illuminated
Mar 17
Waxing Gibbous
Mar 19
Full
Mar 26
Last Quarter
Apr 3
New
Apr 11
First Quarter

Hourly Weather History & Observations

Time (EDT) Temp. Windchill Dew Point Humidity Pressure Visibility Wind Dir Wind Speed Gust Speed Precip Events Conditions
12:54 AM 43.0 °F 38.2 °F 35.1 °F 74% 30.25 in 10.0 mi South 8.1 mph - N/A   Clear
1:54 AM 42.1 °F 37.1 °F 34.0 °F 73% 30.24 in 10.0 mi South 8.1 mph - N/A   Clear
2:54 AM 41.0 °F 36.4 °F 34.0 °F 76% 30.24 in 10.0 mi SSE 6.9 mph - N/A   Clear
3:54 AM 39.9 °F 35.8 °F 34.0 °F 79% 30.23 in 10.0 mi SSE 5.8 mph - N/A   Clear
4:54 AM 39.9 °F 35.1 °F 34.0 °F 79% 30.22 in 10.0 mi South 6.9 mph - N/A   Clear
5:54 AM 41.0 °F 35.2 °F 34.0 °F 76% 30.22 in 10.0 mi South 9.2 mph - N/A   Clear
6:54 AM 39.9 °F 33.9 °F 34.0 °F 79% 30.24 in 10.0 mi SSE 9.2 mph - N/A   Clear
7:54 AM 41.0 °F 33.9 °F 33.8 °F 76% 30.23 in 10.0 mi SSE 12.7 mph - N/A   Clear
8:54 AM 44.1 °F 38.6 °F 36.0 °F 73% 30.25 in 10.0 mi South 10.4 mph - N/A   Clear
9:54 AM 48.9 °F - 37.9 °F 66% 30.25 in 10.0 mi South 13.8 mph - N/A   Mostly Cloudy
10:54 AM 54.0 °F - 39.0 °F 57% 30.24 in 10.0 mi South 13.8 mph - N/A   Clear
11:54 AM 57.9 °F - 41.0 °F 53% 30.23 in 10.0 mi South 13.8 mph - N/A   Partly Cloudy
12:54 PM 62.1 °F - 42.1 °F 48% 30.20 in 10.0 mi South 13.8 mph - N/A   Clear
1:54 PM 66.0 °F - 42.1 °F 42% 30.17 in 10.0 mi SSW 12.7 mph 21.9 mph N/A   Clear
2:54 PM 69.1 °F - 44.1 °F 40% 30.14 in 10.0 mi SW 16.1 mph - N/A   Clear
3:54 PM 71.1 °F - 45.0 °F 39% 30.10 in 10.0 mi SW 17.3 mph 25.3 mph N/A   Clear
4:54 PM 72.0 °F - 45.0 °F 38% 30.08 in 10.0 mi SSW 16.1 mph 24.2 mph N/A   Clear
5:54 PM 72.0 °F - 45.0 °F 38% 30.06 in 10.0 mi SSW 19.6 mph 25.3 mph N/A   Clear
6:54 PM 70.0 °F - 44.1 °F 39% 30.04 in 10.0 mi SSW 17.3 mph 24.2 mph N/A   Clear
7:54 PM 66.9 °F - 44.1 °F 44% 30.04 in 10.0 mi South 11.5 mph - N/A   Clear
8:54 PM 64.9 °F - 45.0 °F 48% 30.03 in 10.0 mi South 12.7 mph - N/A   Clear
9:54 PM 64.9 °F - 44.1 °F 47% 30.04 in 10.0 mi South 16.1 mph - N/A   Clear
10:54 PM 63.0 °F - 44.1 °F 50% 30.05 in 10.0 mi SSW 10.4 mph - N/A   Clear
11:54 PM 62.1 °F - 44.1 °F 52% 30.06 in 10.0 mi SSW 12.7 mph - N/A   Clear